Terminal Aerodrome Forecast
Issued by NWS Denver/Boulder, CO

Home | Current Version | Previous Version | Text Only | Print | Product List | Glossary On
Versions: 1 2 3 4 5 6 7 8 9 10 11 12 13 14 15 16 17 18 19 20 21 22 23 24 25 26 27 28 29 30 31 32 33 34 35 36 37 38 39 40 41 42 43 44 45 46 47 48 49 50
000
FTUS45 KBOU 230156 AAA
TAFDEN
TAF AMD
KDEN 230156Z 2302/2406 11008KT P6SM FEW080 FEW150
     FM230215 22008KT P6SM FEW100
     FM231200 VRB05KT P6SM FEW100 SCT200
     FM231900 16012G20KT P6SM SCT100 BKN200
     FM240100 20010G18KT P6SM VCTS SCT090CB BKN180
     FM240400 18010KT P6SM FEW120 BKN200=

USA.gov is the U.S. government's official web portal to all federal, state and local government web resources and services.